FW9306 Weather Reports


Display with metric or nautical units.
time (UTC)temp
F
wind
direction
speed
MPH
gust
MPH
rain 1hr
in
rain 24hr
in
rain mn
in
humidity
%
barometer
mb
20260902222730 88 253 6.0 7.0 0.00 0.00 0.00 49 1014.3
20260902222225 88 223 8.0 9.0 0.00 0.00 0.00 49 1014.6
20260902221720 86 197 4.0 5.0 0.00 0.00 0.00 52 1014.4
20260902221219 86 219 6.0 7.0 0.00 0.00 0.00 50 1014.5
20260902220715 86 211 8.0 9.0 0.00 0.00 0.00 48 1014.6
20260902220214 86 221 5.0 6.0 0.00 0.00 0.00 49 1014.7
20260902215710 86 250 6.0 7.0 0.00 0.00 0.00 50 1014.6
20260902215205 86 236 5.0 7.0 0.00 0.00 0.00 50 1014.6
20260902214700 86 219 5.0 7.0 0.00 0.00 0.00 52 1014.7
20260902214159 86 203 8.0 8.0 0.00 0.00 0.00 52 1015.0
20260902213655 89 258 3.0 3.0 0.00 0.00 0.00 47 1014.7
20260902213149 89 206 5.0 7.0 0.00 0.00 0.00 47 1014.4
20260902212644 89 259 5.0 6.0 0.00 0.00 0.00 47 1014.7
20260902212140 89 232 4.0 5.0 0.00 0.00 0.00 48 1014.7
20260902211637 90 276 6.0 7.0 0.00 0.00 0.00 47 1014.8
20260902211137 90 351 3.0 5.0 0.00 0.00 0.00 47 1014.8
20260902210636 90 311 6.0 7.0 0.00 0.00 0.00 47 1015.3
20260902210131 90 283 6.0 7.0 0.00 0.00 0.00 47 1015.0
20260902205630 90 286 7.0 8.0 0.00 0.00 0.00 46 1014.8
20260902205125 90 296 8.0 9.0 0.00 0.00 0.00 45 1015.0
20260902204620 90 19 6.0 8.0 0.00 0.00 0.00 45 1015.0
20260902204115 90 209 7.0 7.0 0.00 0.00 0.00 45 1015.1
20260902203611 89 213 6.0 7.0 0.00 0.00 0.00 47 1015.0
20260902203110 90 320 4.0 5.0 0.00 0.00 0.00 46 1015.0
20260902202606 90 357 3.0 5.0 0.00 0.00 0.00 45 1015.4
20260902202102 91 331 3.0 3.0 0.00 0.00 0.00 45 1015.0
20260902201558 92 353 2.0 2.0 0.00 0.00 0.00 42 1015.1
20260902201057 92 335 7.0 9.0 0.00 0.00 0.00 43 1015.3
20260902200552 93 349 4.0 5.0 0.00 0.00 0.00 40 1015.0
20260902200048 92 216 3.0 5.0 0.00 0.00 0.00 42 1015.4
20260902195544 93 271 6.0 8.0 0.00 0.00 0.00 45 1015.6
20260902195042 93 335 6.0 7.0 0.00 0.00 0.00 44 1015.4
20260902194536 91 272 3.0 3.0 0.00 0.00 0.00 44 1015.5
20260902194032 92 223 7.0 7.0 0.00 0.00 0.00 46 1015.7
20260902193528 91 354 2.0 2.0 0.00 0.00 0.00 45 1015.8
20260902193027 91 275 4.0 5.0 0.00 0.00 0.00 48 1015.8
20260902192526 90 269 3.0 5.0 0.00 0.00 0.00 48 1015.8
20260902192025 90 260 5.0 7.0 0.00 0.00 0.00 48 1016.0
20260902191520 91 282 3.0 3.0 0.00 0.00 0.00 47 1016.1
20260902191015 91 339 4.0 6.0 0.00 0.00 0.00 47 1016.1
20260902190510 90 208 5.0 6.0 0.00 0.00 0.00 49 1016.6
20260902190006 90 261 2.0 2.0 0.00 0.00 0.00 48 1016.6
20260902185502 91 233 8.0 9.0 0.00 0.00 0.00 48 1016.4
20260902184956 91 315 3.0 3.0 0.00 0.00 0.00 49 1016.4
20260902184452 91 274 3.0 3.0 0.00 0.00 0.00 47 1016.6
20260902183947 91 250 3.0 3.0 0.00 0.00 0.00 49 1016.6
20260902183443 91 32 2.0 2.0 0.00 0.00 0.00 48 1016.6
20260902182939 91 14 2.0 2.0 0.00 0.00 0.00 48 1017.0
20260902182435 90 232 4.0 5.0 0.00 0.00 0.00 50 1017.1
20260902181932 89 0 3.0 3.0 0.00 0.00 0.00 49 1017.0
20260902181427 88 302 5.0 6.0 0.00 0.00 0.00 52 1017.1
20260902180926 89 54 5.0 7.0 0.00 0.00 0.00 51 1017.1
20260902180422 88 224 1.0 1.0 0.00 0.00 0.00 51 1017.0
20260902175918 89 268 3.0 3.0 0.00 0.00 0.00 52 1017.2
20260902175413 90 283 4.0 5.0 0.00 0.00 0.00 51 1017.0
20260902174908 90 20 2.0 2.0 0.00 0.00 0.00 50 1017.0
20260902174405 88 284 4.0 5.0 0.00 0.00 0.00 52 1017.2
20260902173901 88 208 2.0 3.0 0.00 0.00 0.00 51 1017.3
20260902173400 88 209 5.0 6.0 0.00 0.00 0.00 54 1017.3
20260902172855 89 142 2.0 3.0 0.00 0.00 0.00 51 1017.2
20260902172354 87 218 2.0 2.0 0.00 0.00 0.00 54 1017.4
20260902171849 87 257 4.0 5.0 0.00 0.00 0.00 55 1017.4
20260902171345 88 210 3.0 3.0 0.00 0.00 0.00 53 1017.4
20260902170841 87 113 3.0 3.0 0.00 0.00 0.00 52 1017.2
20260902170336 86 248 2.0 3.0 0.00 0.00 0.00 54 1017.4
20260902165832 87 227 4.0 5.0 0.00 0.00 0.00 55 1017.2
20260902165331 88 221 2.0 2.0 0.00 0.00 0.00 55 1017.3
20260902164826 87 58 2.0 2.0 0.00 0.00 0.00 53 1017.3
20260902164320 86 177 0.0 0.0 0.00 0.00 0.00 55 1017.6
20260902163814 85 216 3.0 3.0 0.00 0.00 0.00 58 1017.5
20260902163309 85 239 2.0 2.0 0.00 0.00 0.00 56 1017.5
20260902162807 85 239 3.0 3.0 0.00 0.00 0.00 58 1017.2
20260902162306 86 167 2.0 3.0 0.00 0.00 0.00 55 1017.4
20260902161802 87 208 5.0 6.0 0.00 0.00 0.00 56 1017.4
20260902161258 85 150 1.0 1.0 0.00 0.00 0.00 56 1017.6
20260902160754 85 222 5.0 6.0 0.00 0.00 0.00 57 1017.5
20260902160249 84 187 2.0 2.0 0.00 0.00 0.00 59 1017.4
20260902155747 84 218 5.0 7.0 0.00 0.00 0.00 57 1017.5
20260902155246 84 241 5.0 6.0 0.00 0.00 0.00 59 1017.4
20260902154741 84 208 4.0 6.0 0.00 0.00 0.00 58 1017.6
20260902154237 83 223 4.0 5.0 0.00 0.00 0.00 59 1017.4
20260902153735 84 200 5.0 6.0 0.00 0.00 0.00 58 1017.6
20260902153230 84 200 1.0 1.0 0.00 0.00 0.00 57 1017.3
20260902152726 84 214 1.0 1.0 0.00 0.00 0.00 59 1017.6
20260902152221 83 198 1.0 1.0 0.00 0.00 0.00 61 1017.7
20260902151717 83 195 4.0 5.0 0.00 0.00 0.00 60 1017.4
20260902151212 83 135 2.0 3.0 0.00 0.00 0.00 60 1017.5
20260902150707 83 204 3.0 3.0 0.00 0.00 0.00 61 1017.4
20260902150203 81 211 2.0 2.0 0.00 0.00 0.00 65 1017.5
20260902145702 81 215 3.0 3.0 0.00 0.00 0.00 63 1017.3
20260902145201 81 224 1.0 2.0 0.00 0.00 0.00 64 1017.2
20260902144658 80 191 2.0 3.0 0.00 0.00 0.00 64 1017.2
20260902144153 80 201 3.0 3.0 0.00 0.00 0.00 65 1017.2
20260902143648 80 176 0.0 0.0 0.00 0.00 0.00 66 1017.3
20260902143143 80 228 1.0 1.0 0.00 0.00 0.00 66 1017.4
20260902142639 80 184 0.0 0.0 0.00 0.00 0.00 66 1017.5
20260902142135 79 167 0.0 0.0 0.00 0.00 0.00 67 1017.7
20260902141634 78 147 0.0 0.0 0.00 0.00 0.00 68 1017.4
20260902141130 79 190 1.0 1.0 0.00 0.00 0.00 67 1017.4
20260902140625 79 190 0.0 0.0 0.00 0.00 0.00 66 1017.2
20260902140120 78 186 0.0 0.0 0.00 0.00 0.00 67 1017.2
20260902135619 78 180 0.0 1.0 0.00 0.00 0.00 67 1017.0
20260902135114 78 153 1.0 2.0 0.00 0.00 0.00 68 1016.8
20260902134610 77 182 0.0 1.0 0.00 0.00 0.00 69 1017.1
20260902134110 77 170 0.0 1.0 0.00 0.00 0.00 70 1016.7
20260902133605 76 166 0.0 0.0 0.00 0.00 0.00 71 1016.8
20260902133105 76 182 1.0 1.0 0.00 0.00 0.00 71 1016.9
20260902132600 75 145 1.0 1.0 0.00 0.00 0.00 72 1016.8
20260902132055 75 107 1.0 1.0 0.00 0.00 0.00 72 1016.7
20260902131551 75 147 1.0 1.0 0.00 0.00 0.00 71 1016.4
20260902131046 75 157 4.0 5.0 0.00 0.00 0.00 72 1016.7
20260902130542 75 142 1.0 1.0 0.00 0.00 0.00 73 1016.4
20260902130037 75 131 1.0 1.0 0.00 0.00 0.00 74 1016.6
20260902125533 75 186 0.0 0.0 0.00 0.00 0.00 74 1016.3
20260902125028 75 169 0.0 0.0 0.00 0.00 0.00 74 1016.6
20260902124526 74 178 0.0 1.0 0.00 0.00 0.00 74 1016.7
20260902124024 74 167 1.0 1.0 0.00 0.00 0.00 74 1016.4
20260902123521 74 206 1.0 1.0 0.00 0.00 0.00 75 1016.3
20260902123020 75 186 2.0 2.0 0.00 0.00 0.00 74 1016.2
20260902122515 75 208 1.0 2.0 0.00 0.00 0.00 74 1016.3
20260902122010 75 193 1.0 2.0 0.00 0.00 0.00 74 1016.2
20260902121505 75 216 0.0 0.0 0.00 0.00 0.00 74 1016.1
20260902121000 75 198 0.0 0.0 0.00 0.00 0.00 74 1016.4
20260902120456 75 219 1.0 1.0 0.00 0.00 0.00 74 1016.4
20260902115956 75 160 2.0 2.0 0.00 0.00 0.00 74 1016.3
20260902115452 75 163 0.0 1.0 0.00 0.00 0.00 75 1016.2
20260902114949 75 185 1.0 2.0 0.00 0.00 0.00 75 1016.3
20260902114444 75 204 0.0 1.0 0.00 0.00 0.00 74 1016.3
20260902113939 75 170 1.0 2.0 0.00 0.00 0.00 74 1016.2
20260902113434 75 198 0.0 1.0 0.00 0.00 0.00 74 1016.3
20260902112934 75 198 0.0 1.0 0.00 0.00 0.00 74 1016.2
20260902112430 75 219 0.0 1.0 0.00 0.00 0.00 74 1016.3
20260902111926 75 190 0.0 0.0 0.00 0.00 0.00 74 1016.1
20260902111422 75 169 0.0 0.0 0.00 0.00 0.00 74 1016.3
20260902110918 75 193 0.0 0.0 0.00 0.00 0.00 74 1016.2
20260902110414 75 206 0.0 1.0 0.00 0.00 0.00 74 1016.1
20260902105914 75 179 0.0 0.0 0.00 0.00 0.00 73 1016.1
20260902105409 75 182 0.0 1.0 0.00 0.00 0.00 73 1016.3
20260902104904 76 204 0.0 0.0 0.00 0.00 0.00 72 1016.2
20260902104359 75 200 1.0 3.0 0.00 0.00 0.00 72 1016.4
20260902103853 76 195 0.0 0.0 0.00 0.00 0.00 72 1016.6
20260902103349 76 189 0.0 0.0 0.00 0.00 0.00 72 1016.6
20260902102843 76 175 0.0 0.0 0.00 0.00 0.00 72 1016.2
20260902102342 76 192 0.0 0.0 0.00 0.00 0.00 72 1016.3
20260902101837 76 180 0.0 0.0 0.00 0.00 0.00 71 1016.4
20260902101331 76 173 0.0 1.0 0.00 0.00 0.00 71 1016.3
20260902100830 76 152 1.0 2.0 0.00 0.00 0.00 71 1016.3
20260902100324 76 174 0.0 0.0 0.00 0.00 0.00 71 1016.3
20260902095819 76 184 2.0 2.0 0.00 0.00 0.00 71 1016.4
20260902095314 76 133 2.0 2.0 0.00 0.00 0.00 72 1016.2
20260902094808 76 184 0.0 0.0 0.00 0.00 0.00 73 1016.4
20260902094305 76 156 0.0 1.0 0.00 0.00 0.00 73 1016.4
20260902093804 76 184 0.0 0.0 0.00 0.00 0.00 73 1016.4
20260902093259 76 145 0.0 1.0 0.00 0.00 0.00 73 1016.2
20260902092758 76 164 1.0 1.0 0.00 0.00 0.00 73 1016.3
20260902092254 76 154 1.0 1.0 0.00 0.00 0.00 73 1016.1
20260902091753 76 203 0.0 1.0 0.00 0.00 0.00 72 1016.2
20260902091249 76 183 1.0 1.0 0.00 0.00 0.00 72 1016.2
20260902090746 76 185 1.0 2.0 0.00 0.00 0.00 71 1016.2
20260902090245 77 165 2.0 2.0 0.00 0.00 0.00 71 1016.0
20260902085744 77 185 3.0 3.0 0.00 0.00 0.00 71 1016.2
20260902085240 77 178 3.0 5.0 0.00 0.00 0.00 71 1016.2
20260902084736 76 187 2.0 2.0 0.00 0.00 0.00 71 1016.2
20260902084232 76 204 4.0 5.0 0.00 0.00 0.00 72 1016.1
20260902083732 76 197 0.0 1.0 0.00 0.00 0.00 72 1016.1
20260902083226 77 214 2.0 2.0 0.00 0.00 0.00 71 1016.1
20260902082722 77 211 2.0 2.0 0.00 0.00 0.00 68 1016.0
20260902082218 77 184 2.0 2.0 0.00 0.00 0.00 68 1016.0
20260902081714 77 185 0.0 0.0 0.00 0.00 0.00 67 1016.0
20260902081209 77 183 0.0 0.0 0.00 0.00 0.00 68 1016.1
20260902080704 78 164 0.0 1.0 0.00 0.00 0.00 68 1016.0
20260902080201 77 177 0.0 0.0 0.00 0.00 0.00 67 1016.1
20260902075701 78 199 1.0 1.0 0.00 0.00 0.00 67 1016.1
20260902075157 78 160 1.0 1.0 0.00 0.00 0.00 67 1015.9
20260902074657 78 201 0.0 1.0 0.00 0.00 0.00 67 1015.7
20260902074152 78 172 0.0 1.0 0.00 0.00 0.00 67 1015.8
20260902073647 78 225 0.0 1.0 0.00 0.00 0.00 67 1015.9
20260902073143 78 144 0.0 0.0 0.00 0.00 0.00 68 1016.1
20260902072639 78 190 0.0 0.0 0.00 0.00 0.00 68 1015.7
20260902072135 78 186 0.0 1.0 0.00 0.00 0.00 68 1015.8
20260902071631 78 142 0.0 0.0 0.00 0.00 0.00 68 1016.1
20260902071126 78 201 0.0 1.0 0.00 0.00 0.00 68 1015.7
20260902070622 78 171 1.0 1.0 0.00 0.00 0.00 68 1015.8
20260902070122 78 193 0.0 1.0 0.00 0.00 0.00 68 1016.0
20260902065621 78 201 1.0 1.0 0.00 0.00 0.00 68 1016.1
20260902065117 78 190 1.0 1.0 0.00 0.00 0.00 67 1015.8
20260902064612 78 141 0.0 1.0 0.00 0.00 0.00 68 1015.8
20260902064107 78 104 1.0 1.0 0.00 0.00 0.00 68 1016.0
20260902063602 78 166 2.0 2.0 0.00 0.00 0.00 67 1015.8
20260902063057 79 158 1.0 1.0 0.00 0.00 0.00 67 1015.9
20260902062556 78 121 1.0 1.0 0.00 0.00 0.00 66 1016.1
20260902062052 79 166 1.0 1.0 0.00 0.00 0.00 66 1015.9
20260902061551 79 188 2.0 2.0 0.00 0.00 0.00 65 1015.9
20260902061047 79 169 2.0 2.0 0.00 0.00 0.00 64 1015.8
20260902060543 79 267 0.0 0.0 0.00 0.00 0.00 65 1015.8
20260902060039 79 208 0.0 0.0 0.00 0.00 0.00 65 1015.8
20260902055535 79 156 1.0 2.0 0.00 0.00 0.00 65 1015.9
20260902055030 80 192 0.0 0.0 0.00 0.00 0.00 64 1015.9
20260902054525 80 190 1.0 1.0 0.00 0.00 0.00 64 1015.7
20260902054021 80 180 0.0 1.0 0.00 0.00 0.00 65 1016.0
20260902053516 80 183 1.0 2.0 0.00 0.00 0.00 65 1015.9
20260902053016 80 171 1.0 1.0 0.00 0.00 0.00 65 1015.7
20260902052510 80 193 2.0 2.0 0.00 0.00 0.00 64 1016.0
20260902052006 80 200 0.0 0.0 0.00 0.00 0.00 64 1016.0
20260902051505 80 198 0.0 0.0 0.00 0.00 0.00 64 1015.9
20260902051004 81 175 1.0 1.0 0.00 0.00 0.00 63 1015.9
20260902050459 81 196 0.0 1.0 0.00 0.00 0.00 64 1016.0
20260902045954 81 162 0.0 1.0 0.00 0.00 0.00 64 1016.0
20260902045449 81 177 0.0 0.0 0.00 0.00 0.00 63 1016.1
20260902044946 81 193 1.0 1.0 0.00 0.00 0.00 64 1016.0
20260902044441 81 196 0.0 1.0 0.00 0.00 0.00 63 1016.0
20260902043936 82 181 1.0 1.0 0.00 0.00 0.00 61 1015.7
20260902043431 83 189 0.0 0.0 0.00 0.00 0.00 59 1015.9
20260902042926 83 203 0.0 0.0 0.00 0.00 0.00 56 1016.0
20260902042425 83 177 1.0 1.0 0.00 0.00 0.00 56 1016.0
20260902041921 84 184 1.0 1.0 0.00 0.00 0.00 56 1015.7
20260902041415 84 195 0.0 0.0 0.00 0.00 0.00 54 1015.8
20260902040914 85 212 0.0 1.0 0.00 0.00 0.00 52 1015.8
20260902040409 85 254 0.0 1.0 0.00 0.00 0.00 52 1015.7
20260902035909 85 231 2.0 2.0 0.00 0.00 0.00 52 1015.7
20260902035404 85 274 2.0 2.0 0.00 0.00 0.00 51 1015.6
20260902034903 85 229 0.0 1.0 0.00 0.00 0.00 52 1015.4
20260902034358 85 248 0.0 1.0 0.00 0.00 0.00 51 1015.4
20260902033856 86 209 1.0 1.0 0.00 0.00 0.00 51 1015.1
20260902033351 86 258 2.0 2.0 0.00 0.00 0.00 50 1015.1
20260902032851 86 222 3.0 3.0 0.00 0.00 0.00 51 1015.1
20260902032350 85 247 2.0 2.0 0.00 0.00 0.00 51 1014.8
20260902031845 86 265 2.0 2.0 0.00 0.00 0.00 50 1014.9
20260902031341 86 246 2.0 2.0 0.00 0.00 0.00 50 1014.7
20260902030837 86 261 2.0 2.0 0.00 0.00 0.00 50 1014.5
20260902030331 86 270 3.0 5.0 0.00 0.00 0.00 49 1014.6
20260902025830 86 278 3.0 3.0 0.00 0.00 0.00 48 1014.3
20260902025327 86 270 2.0 2.0 0.00 0.00 0.00 48 1014.3
20260902024826 87 279 3.0 3.0 0.00 0.00 0.00 48 1014.2
20260902024322 87 245 3.0 3.0 0.00 0.00 0.00 47 1014.2
20260902023817 87 236 1.0 1.0 0.00 0.00 0.00 47 1014.0
20260902023313 87 296 1.0 1.0 0.00 0.00 0.00 47 1014.1
20260902022811 87 164 1.0 1.0 0.00 0.00 0.00 46 1014.0
20260902022307 87 250 3.0 5.0 0.00 0.00 0.00 46 1013.8
20260902021803 87 192 4.0 5.0 0.00 0.00 0.00 46 1013.7
20260902021257 87 290 3.0 3.0 0.00 0.00 0.00 45 1013.7
20260902020753 87 180 3.0 3.0 0.00 0.00 0.00 45 1013.4
20260902020249 88 240 2.0 3.0 0.00 0.00 0.00 45 1013.6
20260902015744 88 265 4.0 5.0 0.00 0.00 0.00 45 1013.5
20260902015240 88 313 5.0 6.0 0.00 0.00 0.00 44 1013.7
20260902014736 88 320 5.0 7.0 0.00 0.00 0.00 44 1013.4
20260902014233 88 324 3.0 5.0 0.00 0.00 0.00 45 1013.2
20260902013730 89 307 5.0 6.0 0.00 0.00 0.00 44 1013.5
20260902013226 89 319 4.0 5.0 0.00 0.00 0.00 43 1013.4
20260902012722 89 286 4.0 6.0 0.00 0.00 0.00 43 1013.4
20260902012217 89 295 4.0 6.0 0.00 0.00 0.00 43 1013.5
20260902011713 89 308 4.0 5.0 0.00 0.00 0.00 43 1013.6
20260902011212 90 322 5.0 7.0 0.00 0.00 0.00 42 1013.3
20260902010706 90 337 5.0 6.0 0.00 0.00 0.00 41 1013.5
20260902010202 90 307 3.0 3.0 0.00 0.00 0.00 41 1013.2
20260902005700 90 357 5.0 6.0 0.00 0.00 0.00 41 1013.5
20260902005156 91 301 5.0 7.0 0.00 0.00 0.00 41 1013.4
20260902004655 91 324 3.0 5.0 0.00 0.00 0.00 41 1013.2
20260902004150 91 334 5.0 7.0 0.00 0.00 0.00 42 1013.4
20260902003646 91 258 4.0 5.0 0.00 0.00 0.00 41 1013.3
20260902003142 91 332 3.0 5.0 0.00 0.00 0.00 42 1013.3
20260902002636 91 355 6.0 7.0 0.00 0.00 0.00 41 1013.3
20260902002131 91 307 4.0 5.0 0.00 0.00 0.00 42 1013.4
20260902001626 91 278 7.0 8.0 0.00 0.00 0.00 41 1013.7
20260902001121 91 321 5.0 6.0 0.00 0.00 0.00 41 1013.5
20260902000616 91 297 4.0 6.0 0.00 0.00 0.00 42 1013.5
20260902000111 91 275 5.0 6.0 0.00 0.00 0.00 42 1013.6
20260901235611 91 293 6.0 8.0 0.00 0.00 0.00 41 1013.7
20260901235106 91 308 5.0 6.0 0.00 0.00 0.00 42 1013.4
20260901234605 91 317 6.0 7.0 0.00 0.00 0.00 43 1013.8
20260901234101 91 333 6.0 7.0 0.00 0.00 0.00 42 1013.8
20260901233601 92 251 5.0 7.0 0.00 0.00 0.00 43 1013.8
20260901233057 91 314 5.0 7.0 0.00 0.00 0.00 43 1013.8
20260901232552 91 278 6.0 7.0 0.00 0.00 0.00 41 1013.7
20260901232047 92 292 5.0 6.0 0.00 0.00 0.00 41 1013.8
20260901231543 91 260 8.0 9.0 0.00 0.00 0.00 42 1013.8
20260901231039 92 269 5.0 8.0 0.00 0.00 0.00 42 1014.0
20260901230540 92 332 6.0 7.0 0.00 0.00 0.00 41 1014.0
20260901230035 92 207 3.0 3.0 0.00 0.00 0.00 41 1014.1
20260901225530 91 227 1.0 2.0 0.00 0.00 0.00 41 1013.8
20260901225029 91 226 6.0 7.0 0.00 0.00 0.00 41 1013.8
20260901224525 93 219 6.0 8.0 0.00 0.00 0.00 39 1013.8
20260901224021 93 10 2.0 2.0 0.00 0.00 0.00 38 1014.2
20260901223516 92 276 6.0 6.0 0.00 0.00 0.00 39 1014.2